Binghamton, NY

5:04 PM EST on November 11, 2019 (GMT -0500)
Binghamton Regional-Link

Weather History for KBGM - September, 2019

Change the Weather History Date:

Sunday, September 1, 2019

  Actual Average Record
Temperature  
Mean Temperature 60 °F 65 °F  
Max Temperature 69 °F 74 °F 92 °F (1953)
Min Temperature 51 °F 56 °F 42 °F (2017)
Degree Days  
Heating Degree Days 5 3  
Month to date heating degree days 5 3  
Since 1 July heating degree days 42 66  
Cooling Degree Days 0 2  
Month to date cooling degree days 0 2  
Year to date cooling degree days 362 350  
Growing Degree Days 10 (Base 50)    
Moisture  
Dew Point 52 °F    
Average Humidity 76    
Maximum Humidity 89    
Minimum Humidity 63    
Precipitation  
Precipitation T in 0.11 in 2.04 in (2003)
Month to date precipitation T 0.11  
Year to date precipitation 28.79 26.32  
Snow  
Snow 0.00 in 0.00 in 0.00 in (2002)
Month to date snowfall 0.0 0.0  
Since 1 July snowfall 0.0 0.0  
Since 1 September snowfall 0.0 0.0  
Snow Depth 0.00 in    
Sea Level Pressure  
Sea Level Pressure 30.28 in    
Wind  
Wind Speed 7 mph (SSE)    
Max Wind Speed 14 mph    
Max Gust Speed 20 mph    
Visibility 10 miles    
Events Rain    
T = Trace of Precipitation, MM = Missing Value Source: NWS Daily Summary

Daily Weather History Graph

Daily Weather History Graph

Search for Another Location

Airport or City:

Astronomy

Sep. 01, 2019 Rise Set
Actual Time 6:29 AM EDT 7:38 PM EDT
Civil Twilight 6:00 AM EDT 8:06 PM EDT
Nautical Twilight 5:25 AM EDT 8:41 PM EDT
Astronomical Twilight 4:49 AM EDT 9:17 PM EDT
Moon 8:58 AM EDT (9/1) 9:21 PM EDT (9/1)
Length of Visible Light 14h 06m
Length of Day
13h 09m
Waxing Crescent, 8% of the Moon is Illuminated
Sep 1
Waxing Crescent
Sep 5
First Quarter
Sep 14
Full
Sep 21
Last Quarter
Sep 28
New

Hourly Weather History & Observations

Time (EDT) Temp. Dew Point Humidity Pressure Visibility Wind Dir Wind Speed Gust Speed Precip Events Conditions
12:53 AM 53.1 °F 48.0 °F 83% 30.34 in 10.0 mi East 3.5 mph - N/A   Clear
1:53 AM 53.1 °F 46.9 °F 80% 30.34 in 10.0 mi East 5.8 mph - N/A   Clear
2:53 AM 53.1 °F 48.0 °F 83% 30.33 in 10.0 mi East 4.6 mph - N/A   Clear
3:53 AM 52.0 °F 48.0 °F 86% 30.34 in 10.0 mi Calm Calm - N/A   Partly Cloudy
4:53 AM 51.1 °F 48.9 °F 92% 30.32 in 10.0 mi East 5.8 mph - N/A   Clear
5:53 AM 52.0 °F 48.9 °F 89% 30.34 in 10.0 mi East 3.5 mph - N/A   Clear
6:53 AM 51.1 °F 48.9 °F 92% 30.35 in 10.0 mi SSE 4.6 mph - N/A   Overcast
7:53 AM 52.0 °F 48.9 °F 89% 30.35 in 10.0 mi SE 3.5 mph - N/A   Overcast
8:53 AM 54.0 °F 48.9 °F 83% 30.35 in 10.0 mi SE 5.8 mph - N/A   Overcast
9:53 AM 55.0 °F 51.1 °F 86% 30.35 in 10.0 mi SE 6.9 mph - 0.00 in Rain Light Rain
10:53 AM 57.0 °F 52.0 °F 83% 30.35 in 10.0 mi SE 5.8 mph - 0.00 in   Overcast
11:53 AM 59.0 °F 52.0 °F 78% 30.34 in 10.0 mi SSE 8.1 mph - N/A   Overcast
12:53 PM 62.1 °F 53.1 °F 72% 30.31 in 10.0 mi SE 11.5 mph - N/A   Mostly Cloudy
1:53 PM 63.0 °F 54.0 °F 72% 30.31 in 10.0 mi South 5.8 mph - N/A   Overcast
2:53 PM 63.0 °F 55.0 °F 75% 30.29 in 10.0 mi SSE 4.6 mph - N/A   Overcast
3:53 PM 66.0 °F 55.0 °F 68% 30.25 in 10.0 mi SSE 8.1 mph - N/A   Overcast
4:53 PM 66.9 °F 55.9 °F 68% 30.24 in 10.0 mi SSE 8.1 mph - 0.00 in   Mostly Cloudy
5:53 PM 66.9 °F 53.1 °F 61% 30.24 in 10.0 mi South 9.2 mph - N/A   Overcast
6:53 PM 64.9 °F 53.1 °F 65% 30.22 in 10.0 mi South 9.2 mph - N/A   Mostly Cloudy
7:10 PM 64.9 °F 54.0 °F 68% 30.22 in 10.0 mi South 8.1 mph - N/A   Overcast
7:53 PM 64.9 °F 54.0 °F 68% 30.21 in 10.0 mi South 8.1 mph - N/A   Overcast
8:34 PM 64.9 °F 54.0 °F 68% 30.20 in 10.0 mi South 12.7 mph 19.6 mph N/A   Overcast
8:53 PM 64.9 °F 55.0 °F 70% 30.20 in 10.0 mi South 9.2 mph - N/A   Overcast
9:10 PM 64.9 °F 55.0 °F 70% 30.20 in 10.0 mi South 9.2 mph - N/A   Overcast
9:53 PM 64.0 °F 55.0 °F 73% 30.19 in 10.0 mi South 5.8 mph - N/A   Overcast
10:53 PM 63.0 °F 57.0 °F 81% 30.17 in 10.0 mi SSE 13.8 mph - 0.00 in   Overcast
11:53 PM 63.0 °F 57.0 °F 81% 30.15 in 10.0 mi South 10.4 mph 20.7 mph N/A   Clear